Wind_Speed
5 5 5 5 6 7 7 6 6 6 6 7 6 6 6 6 6 6 5 5 5 5 4 4 4 5 4 5 5 5 5 5 6 7 7 8 8 8 8 8 8 8 8
5 5 5 5 5 5 5 5 6 5 6 6 6 6 6 7 6 6 6 6 5 5 5 5 5 6 5 6 6 6 7 7 7 7 8 8 8 8 9 9 10 9 9
5 5 5 5 5 5 4 4 5 5 5 6 6 6 7 7 7 7 7 6 6 6 6 6 6 6 6 7 7 8 8 8 8 8 9 9 9 10 10 10 11 11 11
4 4 4 4 4 5 5 5 5 5 5 6 6 7 7 8 8 8 8 7 7 7 7 7 8 8 8 9 9 10 10 10 10 9 10 10 11 11 12 11 12 12 12
3 3 3 3 4 5 6 6 6 6 6 6 6 6 7 8 9 9 8 8 8 9 9 9 9 9 10 10 10 10 11 11 11 11 11 12 11 12 12 13 13 12 13
2 1 2 2 3 4 5 6 7 7 7 7 7 8 8 8 9 9 9 9 9 10 10 10 10 10 10 10 10 10 11 11 11 12 12 13 13 12 12 12 12 13 13
1 1 1 2 2 3 5 6 6 7 7 8 8 8 9 9 9 10 9 9 9 9 10 10 10 10 11 11 11 12 11 12 12 13 13 13 13 13 12 12 13 14 14
0 1 1 2 3 3 5 6 7 8 8 8 8 8 9 10 10 11 11 10 10 10 10 10 10 11 12 12 12 12 13 13 13 14 14 14 13 13 14 14 14 15 15
1 2 2 2 3 3 3 5 5 7 8 8 8 8 9 10 11 11 12 11 11 11 11 11 12 12 12 12 12 12 12 13 14 14 14 14 14 14 14 15 15 15 15
3 3 2 3 3 4 4 4 5 6 7 8 9 9 9 10 11 12 12 12 12 12 12 13 13 13 13 13 12 12 13 14 14 14 15 15 15 14 15 15 15 15 16
4 4 4 4 5 5 5 5 5 6 8 8 9 10 10 10 11 12 12 12 13 13 13 13 14 14 14 14 14 14 14 15 15 15 15 15 16 16 16 16 16 16 16
5 5 5 6 6 6 6 7 7 7 8 8 9 9 10 11 11 11 12 13 13 14 14 13 14 14 15 15 15 15 16 16 16 16 16 16 16 17 17 16 17 17 18
7 7 7 7 8 9 9 9 9 9 9 10 10 11 11 12 13 13 14 15 15 15 15 15 15 15 16 16 16 16 16 17 17 17 16 17 17 17 18 18 18 19 20
9 9 9 9 10 10 10 10 10 11 11 11 11 11 12 13 13 14 15 15 15 15 16 17 17 17 17 17 17 17 18 18 18 18 18 17 18 19 19 20 20 21 21
12 11 11 11 11 11 11 11 11 12 12 12 12 13 13 14 14 14 15 15 16 16 17 18 19 19 19 19 18 18 18 17 18 19 19 19 19 20 21 20 21 22 23
14 14 14 14 14 13 13 13 13 13 13 13 14 14 14 15 16 16 16 17 17 18 18 19 19 20 20 19 19 19 18 18 19 19 20 20 20 20 21 21 22 23 23
17 17 17 17 16 16 16 15 15 15 15 15 16 16 17 17 17 17 18 18 19 19 19 19 20 20 20 20 20 21 21 21 21 21 21 21 21 22 22 23 24 24 24
18 19 20 19 19 19 19 18 18 17 17 17 17 18 18 19 19 19 19 19 19 19 20 20 20 21 21 22 22 22 22 23 23 23 23 23 23 23 24 25 24 25 25
20 20 21 22 21 21 21 21 20 20 19 19 19 19 20 20 20 20 20 20 20 20 20 20 21 22 22 23 24 24 24 24 25 25 25 26 26 26 26 26 26 26 26
23 24 24 24 24 23 22 23 23 22 22 21 22 22 23 22 23 22 22 22 23 23 22 22 22 23 23 24 24 25 26 26 27 27 27 28 27 28 28 27 27 27 28
26 26 26 26 26 26 26 25 25 25 25 24 24 24 24 25 25 25 25 25 26 26 25 25 25 25 24 25 25 26 27 28 28 28 29 29 29 29 29 28 28 28 29
27 28 28 28 28 27 28 28 27 27 27 26 25 26 26 27 28 28 28 28 27 27 27 27 27 28 27 28 28 28 29 29 29 28 28 29 30 30 30 30 30 31 31
29 30 30 30 30 30 29 29 29 28 27 27 27 27 27 27 29 29 29 29 29 29 29 30 30 30 30 30 30 30 30 31 30 30 30 30 30 30 31 31 32 33 34
30 31 32 32 32 32 31 31 31 29 29 29 28 28 29 29 30 30 30 30 31 31 31 31 32 32 32 32 32 32 32 32 31 31 31 32 32 32 32 32 33 33 33
34 34 34 33 33 33 32 32 32 32 31 30 30 30 30 30 31 31 32 32 33 32 33 34 33 33 33 33 33 33 33 33 33 33 32 32 33 33 33 34 35 34 34
35 35 36 35 35 34 34 34 34 33 33 32 31 31 31 31 32 33 34 34 34 34 35 35 35 34 34 34 34 34 34 34 34 34 33 34 34 35 35 35 35 35 35
Wind_Direction
154 148 152 157 163 164 164 166 171 172 176 181 185 190 198 204 205 204 201 207 212 212 219 225 229 232 239 243 248 255 254 258 259 257 254 254 256 258 256 254 256 258 260
155 159 162 159 162 165 173 177 180 177 177 184 195 199 203 207 209 210 209 216 219 223 227 233 244 245 249 251 253 254 256 262 268 268 267 264 264 261 259 257 256 260 261
156 164 170 174 178 186 191 188 193 195 195 199 210 216 217 215 213 216 220 226 231 234 242 243 247 254 255 255 257 259 262 265 267 270 270 273 273 268 266 261 259 259 260
155 165 175 185 195 206 207 205 212 218 214 215 220 223 225 226 224 225 227 232 235 241 248 252 253 256 258 262 262 264 267 268 268 270 270 273 272 271 267 267 264 263 261
153 170 183 194 209 214 213 214 217 224 225 226 228 230 232 232 230 230 233 239 242 245 250 252 255 259 264 267 266 268 271 273 270 272 272 273 272 271 267 267 266 267 264
162 198 217 218 226 228 224 225 227 231 236 238 240 240 239 238 237 237 240 244 247 250 253 253 255 262 269 268 268 272 273 273 272 274 276 274 272 274 269 268 268 269 268
115 169 235 236 244 250 241 240 241 243 243 245 245 247 247 244 243 246 249 251 251 251 252 254 257 263 266 268 269 269 270 271 273 276 279 279 275 274 272 270 268 269 270
48 4 292 267 270 270 256 250 252 251 253 250 251 253 251 247 248 250 250 251 253 255 256 258 263 266 268 269 270 270 271 272 275 277 279 281 279 277 275 275 273 272 269
304 320 335 315 297 289 277 262 260 257 257 258 257 260 258 256 258 257 255 254 256 259 261 263 265 267 267 269 271 273 275 276 277 277 278 280 281 281 278 275 273 271 270
306 305 299 309 306 295 288 282 272 264 264 265 261 263 262 264 266 264 263 260 259 260 261 263 263 266 267 269 271 273 276 278 278 278 279 277 278 280 279 277 276 273 271
320 312 306 305 306 297 294 287 277 276 275 273 271 269 267 269 268 267 268 265 262 262 263 265 266 266 267 269 270 273 276 277 277 278 278 276 277 278 280 277 276 276 273
304 307 309 303 297 293 293 286 281 289 289 283 276 272 272 271 271 268 268 268 265 263 263 264 264 265 267 269 273 275 276 278 279 279 278 277 277 276 278 277 274 274 275
293 296 302 302 295 292 291 287 289 288 288 284 279 276 275 274 273 272 271 270 268 267 265 263 263 267 270 271 272 275 277 278 280 280 280 279 277 276 275 274 273 275 275
288 291 295 296 292 289 287 288 290 287 282 281 281 279 278 278 277 275 274 271 269 270 270 268 268 270 273 275 275 276 277 277 278 280 280 279 277 276 276 274 274 275 277
282 284 285 286 287 286 286 285 286 286 281 278 278 278 279 280 279 278 278 277 274 273 271 270 270 271 272 274 276 277 279 279 280 281 281 279 281 279 279 277 276 277 278
278 278 278 281 286 283 282 281 282 286 287 283 279 278 279 280 279 278 280 278 277 277 276 276 275 272 272 273 274 275 277 279 280 281 282 281 280 280 281 281 282 282 282
277 276 276 277 280 281 281 280 279 281 283 285 284 282 280 279 280 280 279 278 279 279 278 277 277 276 274 273 274 276 278 279 279 279 280 279 279 280 281 283 283 282 283
275 276 277 278 280 281 280 278 278 279 281 282 284 283 282 281 281 282 283 282 282 281 279 279 278 277 276 277 278 279 279 279 279 278 278 279 280 281 282 283 283 282 281
273 275 277 278 278 280 279 275 275 276 278 279 280 281 282 282 280 281 282 282 282 282 281 282 285 281 278 278 279 280 281 281 282 280 278 280 280 281 282 282 281 281 280
273 275 275 275 274 275 275 276 276 275 275 277 278 279 280 280 279 278 279 280 280 279 280 282 284 282 281 279 279 280 281 283 283 282 280 281 281 281 282 280 280 280 281
275 275 274 274 274 274 274 275 274 275 275 276 277 278 277 277 276 277 278 278 278 277 279 281 281 283 283 282 281 282 284 285 285 284 283 282 281 281 281 282 281 281 281
275 275 273 274 276 276 274 273 273 274 275 276 278 278 276 275 275 275 275 277 277 278 279 280 280 282 282 283 282 283 284 285 287 286 285 285 284 284 284 284 283 282 281
275 274 273 275 275 274 274 273 272 272 274 277 277 277 276 275 275 274 274 275 276 278 278 278 279 280 281 282 283 283 283 284 285 286 285 285 286 285 285 286 285 284 283
275 274 273 273 273 272 272 273 272 272 274 276 277 275 275 275 274 273 273 274 275 276 276 277 277 278 279 280 282 282 282 281 282 283 284 283 284 284 285 286 286 286 285
274 276 275 274 272 271 270 271 271 272 274 276 276 275 275 275 274 273 274 274 275 275 276 275 276 277 278 279 280 281 281 281 281 281 282 283 283 283 284 285 286 286 286
274 274 276 274 271 270 270 270 270 271 272 274 274 274 274 274 275 274 274 274 275 276 276 276 276 276 277 277 278 278 279 279 280 280 282 283 284 284 284 285 286 286 286
Height
5884 5885 5886 5886 5887 5888 5889 5890 5891 5892 5892 5893 5894 5895 5896 5896 5897 5898 5899 5899 5900 5900 5901 5901 5901 5902 5902 5902 5903 5903 5903 5903 5903 5903 5903 5903 5903 5903 5903 5903 5903 5903 5903
5885 5886 5886 5887 5888 5889 5889 5890 5891 5892 5892 5893 5894 5895 5895 5896 5897 5897 5898 5899 5899 5899 5900 5900 5900 5901 5901 5901 5901 5901 5901 5901 5901 5901 5901 5901 5901 5901 5901 5901 5901 5901 5901
5885 5886 5887 5887 5888 5889 5890 5890 5891 5892 5892 5893 5894 5894 5895 5895 5896 5897 5897 5898 5898 5898 5899 5899 5899 5900 5899 5900 5900 5900 5900 5900 5899 5899 5899 5899 5899 5899 5899 5899 5899 5899 5899
5886 5886 5886 5887 5888 5888 5889 5890 5891 5891 5892 5893 5893 5893 5894 5894 5895 5895 5896 5896 5896 5897 5897 5898 5898 5898 5898 5898 5898 5898 5897 5897 5897 5897 5897 5897 5897 5896 5896 5896 5896 5896 5896
5886 5886 5887 5887 5887 5888 5888 5889 5890 5890 5891 5891 5892 5892 5892 5893 5893 5894 5894 5895 5895 5895 5895 5896 5896 5896 5896 5896 5896 5896 5895 5895 5895 5895 5895 5894 5894 5893 5893 5893 5893 5893 5893
5886 5886 5886 5887 5887 5887 5887 5888 5889 5889 5889 5890 5890 5891 5891 5891 5892 5892 5893 5893 5893 5893 5893 5893 5894 5894 5894 5894 5894 5893 5893 5893 5892 5892 5892 5891 5891 5890 5890 5890 5890 5890 5890
5886 5886 5886 5886 5886 5887 5887 5887 5887 5888 5888 5888 5889 5889 5890 5890 5890 5891 5891 5891 5891 5891 5891 5891 5891 5891 5891 5891 5891 5891 5891 5890 5890 5889 5889 5888 5888 5887 5887 5887 5887 5887 5887
5886 5886 5885 5885 5886 5886 5885 5885 5886 5886 5886 5887 5887 5887 5888 5888 5888 5889 5889 5889 5889 5889 5889 5889 5889 5889 5889 5888 5888 5888 5888 5887 5887 5887 5886 5885 5885 5884 5884 5884 5883 5883 5883
5886 5885 5885 5885 5885 5885 5884 5884 5884 5885 5885 5885 5885 5886 5886 5886 5886 5887 5887 5887 5887 5887 5887 5887 5887 5887 5886 5886 5885 5885 5885 5884 5884 5883 5883 5882 5882 5881 5881 5880 5880 5879 5879
5885 5885 5885 5884 5884 5884 5883 5883 5883 5883 5883 5883 5883 5883 5883 5883 5884 5884 5884 5884 5884 5884 5884 5884 5884 5883 5883 5883 5882 5882 5882 5881 5881 5880 5879 5879 5878 5877 5877 5876 5876 5875 5875
5884 5884 5884 5883 5883 5883 5882 5882 5882 5881 5881 5881 5881 5881 5881 5881 5881 5881 5881 5881 5881 5881 5881 5880 5880 5880 5880 5879 5879 5878 5878 5878 5877 5876 5876 5875 5874 5874 5873 5872 5872 5872 5871
5884 5883 5882 5882 5882 5881 5881 5880 5880 5880 5879 5879 5879 5878 5878 5878 5878 5878 5878 5878 5877 5877 5877 5877 5877 5876 5876 5875 5875 5875 5874 5874 5873 5872 5872 5871 5870 5870 5869 5868 5868 5867 5867
5882 5882 5881 5880 5880 5879 5879 5879 5878 5878 5877 5877 5876 5876 5876 5875 5875 5875 5875 5874 5874 5874 5873 5873 5873 5872 5872 5871 5871 5871 5870 5870 5869 5868 5867 5866 5866 5865 5864 5864 5863 5863 5862
5881 5880 5879 5879 5878 5877 5877 5876 5875 5875 5874 5874 5874 5873 5873 5872 5872 5871 5871 5871 5870 5870 5869 5869 5869 5868 5868 5867 5867 5866 5866 5865 5864 5863 5863 5862 5861 5860 5860 5859 5859 5858 5857
5878 5878 5877 5876 5875 5875 5874 5873 5873 5872 5871 5871 5870 5870 5869 5869 5868 5868 5867 5867 5867 5866 5865 5864 5864 5863 5863 5863 5862 5862 5861 5860 5859 5859 5858 5857 5856 5856 5855 5854 5854 5853 5852
5874 5874 5874 5873 5873 5872 5871 5870 5870 5869 5868 5867 5867 5866 5866 5865 5864 5864 5863 5862 5862 5861 5861 5859 5858 5858 5858 5857 5857 5856 5856 5855 5854 5854 5853 5852 5851 5851 5850 5849 5848 5847 5846
5870 5870 5870 5870 5869 5868 5867 5867 5866 5865 5865 5864 5863 5863 5862 5861 5860 5860 5859 5858 5857 5856 5855 5855 5853 5853 5852 5852 5851 5851 5850 5850 5849 5848 5847 5846 5846 5845 5844 5843 5842 5841 5840
5866 5866 5866 5865 5864 5864 5863 5862 5861 5861 5860 5860 5859 5858 5857 5857 5856 5855 5854 5853 5852 5851 5850 5849 5848 5847 5847 5846 5846 5845 5844 5844 5843 5842 5841 5840 5839 5839 5838 5837 5836 5835 5834
5861 5861 5861 5860 5859 5859 5858 5857 5856 5856 5855 5854 5854 5853 5852 5851 5851 5850 5849 5848 5847 5846 5845 5844 5843 5842 5841 5840 5840 5839 5838 5837 5836 5835 5835 5834 5833 5832 5831 5830 5829 5828 5827
5855 5855 5855 5854 5853 5853 5852 5851 5851 5850 5849 5848 5848 5847 5846 5845 5845 5844 5843 5842 5841 5840 5839 5838 5838 5836 5835 5834 5833 5833 5832 5830 5830 5829 5828 5827 5826 5825 5824 5823 5822 5821 5820
5849 5848 5848 5847 5847 5846 5846 5845 5844 5843 5843 5842 5841 5840 5839 5839 5838 5837 5836 5836 5834 5833 5833 5832 5831 5830 5829 5828 5827 5826 5825 5824 5822 5821 5820 5819 5818 5817 5816 5815 5814 5813 5812
5841 5841 5840 5840 5839 5838 5838 5837 5836 5836 5835 5835 5834 5833 5832 5832 5831 5830 5829 5828 5827 5826 5826 5825 5824 5823 5822 5821 5820 5818 5817 5817 5815 5814 5812 5811 5810 5809 5808 5807 5806 5804 5803
5833 5833 5832 5831 5831 5830 5830 5829 5828 5828 5828 5827 5826 5825 5824 5824 5823 5822 5821 5821 5820 5819 5818 5817 5816 5815 5814 5813 5812 5811 5810 5809 5807 5806 5805 5803 5802 5801 5799 5798 5797 5795 5794
5825 5824 5823 5823 5822 5821 5821 5821 5820 5819 5819 5819 5818 5817 5816 5815 5815 5814 5813 5812 5812 5811 5810 5808 5808 5807 5805 5804 5803 5802 5801 5800 5799 5798 5796 5795 5794 5792 5791 5789 5788 5786 5784
5816 5815 5814 5813 5813 5812 5812 5811 5811 5810 5810 5810 5809 5808 5807 5806 5806 5805 5804 5803 5802 5801 5800 5799 5798 5797 5796 5795 5794 5793 5792 5790 5790 5789 5787 5786 5784 5783 5782 5780 5779 5777 5775
5805 5804 5803 5803 5802 5802 5802 5802 5801 5801 5801 5800 5799 5798 5798 5797 5796 5795 5794 5793 5792 5792 5790 5789 5788 5787 5786 5785 5784 5783 5782 5781 5780 5779 5778 5776 5774 5773 5772 5770 5769 5767 5765